| time (UTC) | temp F | wind direction | speed knots | gust knots | rain 1hr in | rain 24hr in | rain mn in | humidity % | barometer mb |
| 20260906192703 | 73 | 157 | 5.2 | 5.2 | 0.00 | 0.00 | 0.00 | 78 | 1014.4 |
| 20260906191803 | 73 | 157 | 5.2 | 5.2 | 0.00 | 0.00 | 0.00 | 78 | 1014.4 |
| 20260906190903 | 74 | 163 | 5.2 | 5.2 | 0.00 | 0.00 | 0.00 | 77 | 1014.4 |
| 20260906190003 | 77 | 168 | 3.5 | 4.3 | 0.00 | 0.00 | 0.00 | 77 | 1013.4 |
| 20260906185424 | 78 | 173 | 4.3 | 4.3 | 0.00 | 0.00 | 0.00 | 80 | 1013.4 |
| 20260906184503 | 78 | 198 | 0.0 | 2.6 | 0.00 | 0.00 | 0.00 | 81 | 1012.3 |
| 20260906183603 | 79 | 0 | 0.0 | 0.0 | 0.00 | 0.00 | 0.00 | 79 | 1012.3 |
| 20260906182703 | 79 | 0 | 0.0 | 0.0 | 0.00 | 0.00 | 0.00 | 79 | 1012.3 |
| 20260906181803 | 79 | 0 | 0.0 | 0.0 | 0.00 | 0.00 | 0.00 | 79 | 1012.3 |
| 20260906180903 | 79 | 0 | 0.0 | 0.0 | 0.00 | 0.00 | 0.00 | 79 | 1012.3 |
| 20260906180003 | 80 | 0 | 0.0 | 0.0 | 0.00 | 0.00 | 0.00 | 79 | 1013.4 |
| 20260906175403 | 80 | 0 | 0.0 | 0.0 | 0.00 | 0.00 | 0.00 | 79 | 1013.4 |
| 20260906174503 | 80 | 247 | 0.0 | 0.9 | 0.00 | 0.00 | 0.00 | 79 | 1012.3 |
| 20260906173603 | 80 | 0 | 0.0 | 0.0 | 0.00 | 0.00 | 0.00 | 79 | 1012.3 |
| 20260906172703 | 80 | 0 | 0.0 | 0.0 | 0.00 | 0.00 | 0.00 | 80 | 1012.3 |
| 20260906171803 | 80 | 0 | 0.0 | 0.0 | 0.00 | 0.00 | 0.00 | 84 | 1012.3 |
| 20260906170903 | 80 | 0 | 0.0 | 0.0 | 0.00 | 0.00 | 0.00 | 85 | 1012.3 |
| 20260906170003 | 79 | 157 | 0.0 | 0.9 | 0.00 | 0.00 | 0.00 | 86 | 1012.3 |
| 20260906165403 | 79 | 157 | 0.0 | 0.9 | 0.00 | 0.00 | 0.00 | 87 | 1012.3 |
| 20260906164503 | 78 | 157 | 0.0 | 1.7 | 0.00 | 0.00 | 0.00 | 88 | 1012.3 |
| 20260906163603 | 78 | 0 | 0.0 | 0.0 | 0.00 | 0.00 | 0.00 | 89 | 1012.3 |
| 20260906162703 | 78 | 0 | 0.0 | 0.0 | 0.00 | 0.00 | 0.00 | 89 | 1012.3 |
| 20260906161824 | 78 | 0 | 0.0 | 0.0 | 0.00 | 0.00 | 0.00 | 89 | 1012.3 |
| 20260906160903 | 77 | 0 | 0.0 | 0.0 | 0.00 | 0.00 | 0.00 | 90 | 1012.3 |
| 20260906160003 | 77 | 190 | 0.0 | 0.9 | 0.00 | 0.00 | 0.00 | 90 | 1012.3 |
| 20260906155403 | 77 | 202 | 0.0 | 0.9 | 0.00 | 0.00 | 0.00 | 90 | 1012.3 |
| 20260906154503 | 77 | 157 | 0.0 | 0.9 | 0.00 | 0.00 | 0.00 | 90 | 1012.3 |
| 20260906153603 | 77 | 157 | 0.0 | 0.9 | 0.00 | 0.00 | 0.00 | 91 | 1012.3 |
| 20260906152724 | 76 | 0 | 0.0 | 0.0 | 0.00 | 0.00 | 0.00 | 91 | 1012.3 |
| 20260906151803 | 76 | 0 | 0.0 | 0.0 | 0.00 | 0.00 | 0.00 | 91 | 1012.3 |
| 20260906150903 | 76 | 0 | 0.0 | 0.0 | 0.00 | 0.00 | 0.00 | 91 | 1012.3 |
| 20260906150024 | 76 | 0 | 0.0 | 0.0 | 0.00 | 0.00 | 0.00 | 91 | 1012.3 |
| 20260906145424 | 76 | 0 | 0.0 | 0.0 | 0.00 | 0.00 | 0.00 | 91 | 1012.3 |
| 20260906144524 | 76 | 157 | 0.0 | 0.9 | 0.00 | 0.00 | 0.00 | 92 | 1012.3 |
| 20260906143603 | 76 | 157 | 0.9 | 0.9 | 0.00 | 0.00 | 0.00 | 92 | 1012.3 |
| 20260906142724 | 76 | 0 | 0.0 | 0.0 | 0.00 | 0.00 | 0.00 | 92 | 1012.3 |
| 20260906141824 | 76 | 157 | 0.0 | 0.9 | 0.00 | 0.00 | 0.00 | 92 | 1012.3 |
| 20260906140903 | 76 | 157 | 0.0 | 0.9 | 0.00 | 0.00 | 0.00 | 92 | 1012.3 |
| 20260906140003 | 75 | 135 | 0.0 | 1.7 | 0.00 | 0.00 | 0.00 | 92 | 1012.3 |
| 20260906135403 | 75 | 135 | 0.0 | 1.7 | 0.00 | 0.00 | 0.00 | 92 | 1012.3 |
| 20260906134503 | 75 | 0 | 0.0 | 0.0 | 0.00 | 0.00 | 0.00 | 93 | 1012.3 |
| 20260906133603 | 75 | 157 | 0.0 | 1.7 | 0.00 | 0.00 | 0.00 | 93 | 1012.3 |
| 20260906132703 | 75 | 157 | 0.0 | 0.9 | 0.00 | 0.00 | 0.00 | 93 | 1012.3 |
| 20260906131803 | 75 | 0 | 0.0 | 0.0 | 0.00 | 0.00 | 0.00 | 93 | 1012.3 |
| 20260906130903 | 75 | 157 | 0.9 | 0.9 | 0.00 | 0.00 | 0.00 | 93 | 1012.3 |
| 20260906130024 | 74 | 157 | 0.0 | 0.9 | 0.00 | 0.00 | 0.00 | 93 | 1012.3 |
| 20260906125403 | 74 | 0 | 0.0 | 0.0 | 0.00 | 0.00 | 0.00 | 93 | 1012.3 |
| 20260906124503 | 74 | 0 | 0.0 | 0.0 | 0.00 | 0.00 | 0.00 | 93 | 1012.3 |
| 20260906123603 | 74 | 0 | 0.0 | 0.0 | 0.00 | 0.00 | 0.00 | 93 | 1012.3 |
| 20260906122724 | 74 | 0 | 0.0 | 0.0 | 0.00 | 0.00 | 0.00 | 93 | 1012.3 |
| 20260906121803 | 74 | 0 | 0.0 | 0.0 | 0.00 | 0.00 | 0.00 | 93 | 1012.3 |
| 20260906120903 | 74 | 0 | 0.0 | 0.0 | 0.00 | 0.00 | 0.00 | 92 | 1011.3 |
| 20260906120003 | 74 | 0 | 0.0 | 0.0 | 0.00 | 0.00 | 0.00 | 92 | 1011.3 |
| 20260906115403 | 74 | 0 | 0.0 | 0.0 | 0.00 | 0.00 | 0.00 | 92 | 1011.3 |
| 20260906114503 | 74 | 0 | 0.0 | 0.0 | 0.00 | 0.00 | 0.00 | 92 | 1011.3 |
| 20260906113603 | 74 | 157 | 0.0 | 0.9 | 0.00 | 0.00 | 0.00 | 92 | 1011.3 |
| 20260906112703 | 74 | 157 | 0.9 | 0.9 | 0.00 | 0.00 | 0.00 | 92 | 1011.3 |
| 20260906111803 | 74 | 0 | 0.0 | 0.0 | 0.00 | 0.00 | 0.00 | 91 | 1011.3 |
| 20260906110903 | 74 | 0 | 0.0 | 0.0 | 0.00 | 0.00 | 0.00 | 91 | 1011.3 |
| 20260906110003 | 74 | 0 | 0.0 | 0.0 | 0.00 | 0.00 | 0.00 | 91 | 1011.3 |
| 20260906105403 | 74 | 157 | 0.0 | 0.9 | 0.00 | 0.00 | 0.00 | 91 | 1011.3 |
| 20260906104503 | 74 | 157 | 0.9 | 0.9 | 0.00 | 0.00 | 0.00 | 91 | 1011.3 |
| 20260906103624 | 74 | 0 | 0.0 | 0.0 | 0.00 | 0.00 | 0.00 | 91 | 1011.3 |
| 20260906102703 | 74 | 0 | 0.0 | 0.0 | 0.00 | 0.00 | 0.00 | 90 | 1011.3 |
| 20260906101803 | 74 | 0 | 0.0 | 0.0 | 0.00 | 0.00 | 0.00 | 90 | 1011.3 |
| 20260906100903 | 74 | 0 | 0.0 | 0.0 | 0.00 | 0.00 | 0.00 | 90 | 1011.3 |
| 20260906100003 | 74 | 0 | 0.0 | 0.0 | 0.00 | 0.00 | 0.00 | 90 | 1011.3 |
| 20260906095403 | 74 | 0 | 0.0 | 0.0 | 0.00 | 0.00 | 0.00 | 90 | 1011.3 |
| 20260906094503 | 74 | 0 | 0.0 | 0.0 | 0.00 | 0.00 | 0.00 | 90 | 1011.3 |
| 20260906093603 | 74 | 0 | 0.0 | 0.0 | 0.00 | 0.00 | 0.00 | 90 | 1011.3 |
| 20260906092703 | 74 | 0 | 0.0 | 0.0 | 0.00 | 0.00 | 0.00 | 90 | 1011.3 |
| 20260906091824 | 74 | 157 | 0.0 | 0.9 | 0.00 | 0.00 | 0.00 | 90 | 1011.3 |
| 20260906090903 | 74 | 0 | 0.0 | 0.0 | 0.00 | 0.00 | 0.00 | 90 | 1011.3 |
| 20260906090024 | 74 | 157 | 0.0 | 0.9 | 0.00 | 0.00 | 0.00 | 89 | 1011.3 |
| 20260906085403 | 74 | 0 | 0.0 | 0.0 | 0.00 | 0.00 | 0.00 | 89 | 1011.3 |
| 20260906084503 | 74 | 0 | 0.0 | 0.0 | 0.00 | 0.00 | 0.00 | 89 | 1011.3 |
| 20260906083603 | 74 | 0 | 0.0 | 0.0 | 0.00 | 0.00 | 0.00 | 89 | 1011.3 |
| 20260906082703 | 73 | 90 | 0.0 | 1.7 | 0.00 | 0.00 | 0.00 | 88 | 1011.3 |
| 20260906081824 | 73 | 0 | 0.0 | 0.0 | 0.00 | 0.00 | 0.00 | 88 | 1011.3 |
| 20260906080903 | 73 | 157 | 0.0 | 0.9 | 0.00 | 0.00 | 0.00 | 88 | 1010.2 |
| 20260906080024 | 73 | 157 | 0.9 | 0.9 | 0.00 | 0.00 | 0.00 | 87 | 1010.2 |
| 20260906075403 | 73 | 157 | 0.0 | 0.9 | 0.00 | 0.00 | 0.00 | 87 | 1010.2 |
| 20260906074503 | 73 | 0 | 0.0 | 0.0 | 0.00 | 0.00 | 0.00 | 86 | 1011.3 |
| 20260906073603 | 73 | 0 | 0.0 | 0.0 | 0.00 | 0.00 | 0.00 | 85 | 1011.3 |
| 20260906072703 | 73 | 0 | 0.0 | 0.0 | 0.00 | 0.00 | 0.00 | 85 | 1011.3 |
| 20260906071803 | 73 | 0 | 0.0 | 0.0 | 0.00 | 0.00 | 0.00 | 84 | 1011.3 |
| 20260906070903 | 73 | 0 | 0.0 | 0.0 | 0.00 | 0.00 | 0.00 | 84 | 1011.3 |
| 20260906070003 | 73 | 0 | 0.0 | 0.0 | 0.00 | 0.00 | 0.00 | 83 | 1011.3 |
| 20260906065403 | 73 | 0 | 0.0 | 0.0 | 0.00 | 0.00 | 0.00 | 83 | 1011.3 |
| 20260906064503 | 73 | 0 | 0.0 | 0.0 | 0.00 | 0.00 | 0.00 | 82 | 1011.3 |
| 20260906063624 | 73 | 135 | 0.0 | 0.9 | 0.00 | 0.00 | 0.00 | 81 | 1011.3 |
| 20260906062703 | 73 | 135 | 0.9 | 0.9 | 0.00 | 0.00 | 0.00 | 80 | 1011.3 |
| 20260906061803 | 73 | 0 | 0.0 | 0.0 | 0.00 | 0.00 | 0.00 | 80 | 1011.3 |
| 20260906060903 | 74 | 0 | 0.0 | 0.0 | 0.00 | 0.00 | 0.00 | 79 | 1011.3 |
| 20260906060003 | 74 | 0 | 0.0 | 0.0 | 0.00 | 0.00 | 0.00 | 79 | 1011.3 |
| 20260906055424 | 74 | 0 | 0.0 | 0.0 | 0.00 | 0.00 | 0.00 | 78 | 1011.3 |
| 20260906054524 | 74 | 0 | 0.0 | 0.0 | 0.00 | 0.00 | 0.00 | 78 | 1011.3 |
| 20260906053603 | 74 | 0 | 0.0 | 0.0 | 0.00 | 0.00 | 0.00 | 78 | 1011.3 |
| 20260906052703 | 74 | 0 | 0.0 | 0.0 | 0.00 | 0.00 | 0.00 | 77 | 1011.3 |
| 20260906051803 | 74 | 0 | 0.0 | 0.0 | 0.00 | 0.00 | 0.00 | 77 | 1011.3 |
| 20260906050903 | 74 | 0 | 0.0 | 0.0 | 0.00 | 0.00 | 0.00 | 76 | 1011.3 |
| 20260906050003 | 74 | 0 | 0.0 | 0.0 | 0.00 | 0.00 | 0.00 | 75 | 1011.3 |
| 20260906045403 | 74 | 0 | 0.0 | 0.0 | 0.00 | 0.00 | 0.00 | 75 | 1011.3 |
| 20260906044503 | 74 | 0 | 0.0 | 0.0 | 0.00 | 0.00 | 0.00 | 75 | 1011.3 |
| 20260906043603 | 74 | 0 | 0.0 | 0.0 | 0.00 | 0.00 | 0.00 | 74 | 1011.3 |
| 20260906042724 | 75 | 0 | 0.0 | 0.0 | 0.00 | 0.00 | 0.00 | 73 | 1011.3 |
| 20260906041824 | 75 | 0 | 0.0 | 0.0 | 0.00 | 0.00 | 0.00 | 73 | 1011.3 |
| 20260906040924 | 75 | 135 | 0.0 | 0.9 | 0.00 | 0.00 | 0.00 | 72 | 1011.3 |
| 20260906040003 | 75 | 0 | 0.0 | 0.0 | 0.00 | 0.00 | 0.00 | 71 | 1011.3 |
| 20260906035424 | 75 | 0 | 0.0 | 0.0 | 0.00 | 0.00 | 0.00 | 70 | 1011.3 |
| 20260906034503 | 76 | 0 | 0.0 | 0.0 | 0.00 | 0.00 | 0.00 | 69 | 1011.3 |
| 20260906033624 | 76 | 0 | 0.0 | 0.0 | 0.00 | 0.00 | 0.00 | 69 | 1011.3 |
| 20260906032703 | 76 | 0 | 0.0 | 0.0 | 0.00 | 0.00 | 0.00 | 68 | 1011.3 |
| 20260906031803 | 77 | 0 | 0.0 | 0.0 | 0.00 | 0.00 | 0.00 | 67 | 1011.3 |
| 20260906030903 | 77 | 0 | 0.0 | 0.0 | 0.00 | 0.00 | 0.00 | 67 | 1011.3 |
| 20260906030024 | 77 | 0 | 0.0 | 0.0 | 0.00 | 0.00 | 0.00 | 66 | 1011.3 |
| 20260906025424 | 77 | 0 | 0.0 | 0.0 | 0.00 | 0.00 | 0.00 | 65 | 1011.3 |
| 20260906024503 | 77 | 0 | 0.0 | 0.0 | 0.00 | 0.00 | 0.00 | 64 | 1011.3 |
| 20260906023603 | 77 | 0 | 0.0 | 0.0 | 0.00 | 0.00 | 0.00 | 63 | 1011.3 |
| 20260906022703 | 78 | 135 | 0.0 | 1.7 | 0.00 | 0.00 | 0.00 | 62 | 1011.3 |
| 20260906021803 | 78 | 0 | 0.0 | 0.0 | 0.00 | 0.00 | 0.00 | 62 | 1011.3 |
| 20260906020903 | 78 | 0 | 0.0 | 0.0 | 0.00 | 0.00 | 0.00 | 61 | 1010.2 |
| 20260906020024 | 79 | 0 | 0.0 | 0.0 | 0.00 | 0.00 | 0.00 | 60 | 1010.2 |
| 20260906015403 | 79 | 0 | 0.0 | 0.0 | 0.00 | 0.00 | 0.00 | 60 | 1010.2 |
| 20260906014503 | 79 | 0 | 0.0 | 0.0 | 0.00 | 0.00 | 0.00 | 59 | 1010.2 |
| 20260906013603 | 80 | 0 | 0.0 | 0.0 | 0.00 | 0.00 | 0.00 | 58 | 1010.2 |
| 20260906012724 | 80 | 0 | 0.0 | 0.0 | 0.00 | 0.00 | 0.00 | 57 | 1010.2 |
| 20260906011824 | 80 | 0 | 0.0 | 0.0 | 0.00 | 0.00 | 0.00 | 56 | 1010.2 |
| 20260906010924 | 81 | 0 | 0.0 | 0.0 | 0.00 | 0.00 | 0.00 | 55 | 1010.2 |
| 20260906010003 | 81 | 0 | 0.0 | 0.0 | 0.00 | 0.00 | 0.00 | 54 | 1010.2 |
| 20260906005403 | 82 | 135 | 0.0 | 0.9 | 0.00 | 0.00 | 0.00 | 53 | 1010.2 |
| 20260906004503 | 82 | 135 | 0.0 | 0.9 | 0.00 | 0.00 | 0.00 | 52 | 1010.2 |
| 20260906003603 | 82 | 0 | 0.0 | 0.0 | 0.00 | 0.00 | 0.00 | 51 | 1010.2 |
| 20260906002703 | 83 | 135 | 0.0 | 1.7 | 0.00 | 0.00 | 0.00 | 50 | 1009.2 |
| 20260906001803 | 83 | 135 | 0.0 | 1.7 | 0.00 | 0.00 | 0.00 | 49 | 1009.2 |
| 20260906000924 | 84 | 135 | 0.0 | 0.9 | 0.00 | 0.00 | 0.00 | 49 | 1009.2 |
| 20260906000003 | 84 | 102 | 0.0 | 1.7 | 0.00 | 0.00 | 0.00 | 49 | 1009.2 |
| 20260905235403 | 85 | 100 | 0.0 | 1.7 | 0.00 | 0.00 | 0.00 | 48 | 1009.2 |
| 20260905234503 | 85 | 135 | 0.0 | 0.9 | 0.00 | 0.00 | 0.00 | 47 | 1009.2 |
| 20260905233603 | 85 | 0 | 0.0 | 0.0 | 0.00 | 0.00 | 0.00 | 47 | 1009.2 |
| 20260905232703 | 85 | 157 | 0.0 | 0.9 | 0.00 | 0.00 | 0.00 | 47 | 1009.2 |
| 20260905231803 | 86 | 166 | 0.0 | 1.7 | 0.00 | 0.00 | 0.00 | 47 | 1009.2 |
| 20260905230903 | 86 | 0 | 0.0 | 0.0 | 0.00 | 0.00 | 0.00 | 47 | 1009.2 |
| 20260905230003 | 86 | 180 | 0.0 | 2.6 | 0.00 | 0.00 | 0.00 | 47 | 1009.2 |
| 20260905225403 | 86 | 180 | 0.0 | 2.6 | 0.00 | 0.00 | 0.00 | 47 | 1009.2 |
| 20260905224524 | 86 | 166 | 0.0 | 0.9 | 0.00 | 0.00 | 0.00 | 47 | 1009.2 |
| 20260905223603 | 86 | 166 | 0.9 | 0.9 | 0.00 | 0.00 | 0.00 | 47 | 1009.2 |
| 20260905222724 | 86 | 144 | 0.0 | 1.7 | 0.00 | 0.00 | 0.00 | 48 | 1009.2 |
| 20260905221803 | 86 | 157 | 0.0 | 1.7 | 0.00 | 0.00 | 0.00 | 48 | 1009.2 |
| 20260905220924 | 86 | 133 | 0.0 | 1.7 | 0.00 | 0.00 | 0.00 | 48 | 1009.2 |
| 20260905220024 | 86 | 157 | 0.0 | 0.9 | 0.00 | 0.00 | 0.00 | 47 | 1009.2 |
| 20260905215403 | 86 | 157 | 0.9 | 0.9 | 0.00 | 0.00 | 0.00 | 47 | 1009.2 |
| 20260905214503 | 86 | 157 | 0.0 | 0.9 | 0.00 | 0.00 | 0.00 | 47 | 1009.2 |
| 20260905213603 | 86 | 147 | 0.0 | 2.6 | 0.00 | 0.00 | 0.00 | 48 | 1009.2 |
| 20260905212703 | 86 | 167 | 2.6 | 2.6 | 0.00 | 0.00 | 0.00 | 47 | 1009.2 |
| 20260905211803 | 86 | 174 | 0.9 | 0.9 | 0.00 | 0.00 | 0.00 | 48 | 1009.2 |
| 20260905210903 | 86 | 135 | 0.0 | 2.6 | 0.00 | 0.00 | 0.00 | 48 | 1009.2 |
| 20260905210003 | 85 | 130 | 2.6 | 2.6 | 0.00 | 0.00 | 0.00 | 48 | 1009.2 |
| 20260905205403 | 85 | 121 | 0.9 | 0.9 | 0.00 | 0.00 | 0.00 | 48 | 1009.2 |
| 20260905204524 | 85 | 180 | 0.0 | 0.9 | 0.00 | 0.00 | 0.00 | 48 | 1009.2 |
| 20260905203603 | 85 | 157 | 0.0 | 0.9 | 0.00 | 0.00 | 0.00 | 48 | 1009.2 |
| 20260905202703 | 85 | 176 | 0.9 | 1.7 | 0.00 | 0.00 | 0.00 | 50 | 1009.2 |
| 20260905201803 | 85 | 337 | 0.0 | 1.7 | 0.00 | 0.00 | 0.00 | 52 | 1009.2 |
| 20260905200903 | 84 | 337 | 0.0 | 0.9 | 0.00 | 0.00 | 0.00 | 53 | 1009.2 |
| 20260905200024 | 84 | 0 | 0.0 | 0.0 | 0.00 | 0.00 | 0.00 | 54 | 1009.2 |
| 20260905195424 | 84 | 0 | 0.0 | 0.0 | 0.00 | 0.00 | 0.00 | 53 | 1009.2 |
| 20260905194524 | 83 | 157 | 0.0 | 0.9 | 0.00 | 0.00 | 0.00 | 53 | 1009.2 |
| 20260905193603 | 83 | 163 | 0.0 | 0.9 | 0.00 | 0.00 | 0.00 | 53 | 1009.2 |